Regional Weather Roundup
Issued by NWS

Home | Current Version | Previous Version | Text Only | Print | Product List | Glossary Off
Versions: 1 2 3 4 5 6 7 8 9 10 11 12 13 14 15 16 17 18 19 20 21 22 23 24 25 26 27 28 29 30 31 32 33 34 35 36 37 38 39 40 41 42 43 44 45 46 47 48 49 50

000
ASUS45 KABQ 251910
RWRNM
WEATHER ROUNDUP FOR NEW MEXICO
NATIONAL WEATHER SERVICE ALBUQUERQUE NM
1200 PM MST TUE NOV 25 2014

NOTE: "FAIR" MEANS FEW OR NO CLOUDS BELOW 12,000 FEET AGL WITH NO
       SIGNIFICANT WEATHER OR OBSTRUCTIONS TO VISION.

      THIS PRODUCT IS RELEASED AS TWO VERSIONS.  ONE VERSION NEAR
      THE TOP OF THE HOUR CONTAINING PRELIMINARY DATA FROM ALBUQUERQUE
      AND OTHER STATIONS.  A FINAL VERSION WITH ADDITIONAL DATA IS
      ISSUED ABOUT 10 MINUTES AFTER THE HOUR.

NMZ501-503-504-510>518-252000-
NORTHWEST PLATEAU/NORTHCENTRAL MOUNTAINS

CITY           SKY/WX    TMP DP  RH WIND       PRES   REMARKS
FARMINGTON     SUNNY     40   7  25 W16G25    30.35F WCI  31
LOS ALAMOS     SUNNY     31   4  31 NE6       30.29F WCI  25
SANTA FE       SUNNY     37   7  28 W12       30.28F WCI  29
TAOS           SUNNY     28  10  47 SW10      30.28F WCI  19
ANGEL FIRE     FAIR      23   7  49 W26G33    30.18F WCI   6

$$
NMZ402-403-502-505>509-252000-
WESTCENTRAL MOUNTAINS/SOUTHWEST MOUNTAINS

CITY           SKY/WX    TMP DP  RH WIND       PRES   REMARKS
GALLUP         SUNNY     42   2  18 SW15G22   30.38F
GRANTS         SUNNY     41   0  17 CALM      30.35F
SILVER CITY    SUNNY     46  -8  10 SW6       30.42F

$$
NMZ407-409-411-412-252000-
SOUTHERN DESERTS

CITY           SKY/WX    TMP DP  RH WIND       PRES   REMARKS
LORDSBURG      FAIR      48   3  15 CALM      30.42F
DEMING         SUNNY     50   3  14 SW9       30.41F
LAS CRUCES     SUNNY     49   8  19 S8        30.41F
HOLLOMAN AFB   SUNNY     48  10  21 SW7       30.38F
ALAMOGORDO     SUNNY     48   9  20 CALM      30.40F
T OR C         SUNNY     46   1  15 SW7       30.38F

$$
NMZ519>523-252000-
CENTRAL VALLEYS/CENTRAL HIGHLANDS

CITY           SKY/WX    TMP DP  RH WIND       PRES   REMARKS
ALBUQUERQUE    MOSUNNY   39  10  30 S3        30.35F
DOUBLE EAGLE   MOSUNNY   37   3  23 W7        30.34F WCI  32
MORIARTY ARPT  FAIR      43   0  16 NW20G26   30.27F
CLINES CORNERS MOSUNNY   37   2  22 W36G47    30.18F WCI  23
BELEN          FAIR      42   6  22 SW7       30.36F
SOCORRO        FAIR      45   6  20 S10       30.37F

$$
NMZ524>526-539-540-252000-
SOUTHCENTRAL MOUNTAINS

CITY           SKY/WX    TMP DP  RH WIND       PRES   REMARKS
RUIDOSO        SUNNY     41  -9  11 NW12G20   30.31F

$$
NMZ527>531-252000-
NORTHEAST HIGHLANDS/NORTHEAST PLAINS

CITY           SKY/WX    TMP DP  RH WIND       PRES   REMARKS
LAS VEGAS      MOSUNNY   40   3  21 S6        30.11F
RATON          PTSUNNY   35  12  38 VRB3      30.04F
CLAYTON        SUNNY     47   8  20 SW20G29   30.03F

$$
NMZ532>537-252000-
EASTCENTRAL PLAINS

CITY           SKY/WX    TMP DP  RH WIND       PRES   REMARKS
TUCUMCARI      SUNNY     52  11  19 W23G29    30.11F
CANNON AFB     SUNNY     47  13  24 SW28G36   30.16F
CLOVIS AIRPORT SUNNY     48  14  25 SW30      30.17F

$$
NMZ028-029-538-252000-
SOUTHEAST PLAINS

CITY           SKY/WX    TMP DP  RH WIND       PRES   REMARKS
ROSWELL        SUNNY     53  12  19 S10G17    30.28F
CARLSBAD       SUNNY     54  14  20 S10       30.31F
HOBBS          SUNNY     50  14  23 SW13G18   30.32F


$$



USA.gov is the U.S. government's official web portal to all federal, state and local government web resources and services.